Regional Weather Roundup
Issued by NWS

Home | Current Version | Previous Version | Graphics & Text | Print | Product List | Glossary On
Versions: 1 2 3 4 5 6 7 8 9 10 11 12 13 14 15 16 17 18 19 20 21 22 23 24 25 26 27 28 29 30 31 32 33 34 35 36 37 38 39 40 41 42 43 44 45 46 47 48 49 50
000
ASUS43 KIND 080009
RWRIN

WEATHER ROUNDUP FOR INDIANA
NATIONAL WEATHER SERVICE INDIANAPOLIS IN
700 PM EST WED DEC 07 2016

NOTE: "FAIR" INDICATES FEW OR NO CLOUDS BELOW 12,000 FEET WITH NO
SIGNIFICANT WEATHER AND/OR OBSTRUCTIONS TO VISIBILITY.

* - STATION DOES NOT REPORT WEATHER SUCH AS PRECIPITATION OR FOG.

+ - STATION NOT QUALITY CONTROLLED BY THE NATIONAL WEATHER SERVICE.
    USE DATA WITH CAUTION...ESPECIALLY DEWPOINT AND RELATIVE
    HUMIDITY OBSERVATIONS.

INZ001>003-010>013-019-020-080100-
NORTHWEST INDIANA

CITY           SKY/WX    TMP DP  RH WIND       PRES   REMARKS
GARY /AIRPORT/ PTCLDY    28  19  69 W20       30.14R WCI  15
KNOX *+        PTCLDY    30   5  34 W14G22    30.13R WCI  20
LA PORTE +     PTCLDY    27  21  76 W14       30.12R WCI  16
6HR MIN TEMP:  27; 6HR MAX TEMP:  30;

MICHIGAN CITY+ PTCLDY    28  19  69 SW13G18   30.12S WCI  18
MONTICELLO +   MOCLDY    30  21  68 W9        30.15R WCI  22
6HR MIN TEMP:  30; 6HR MAX TEMP:  35;

RENSSELAER +     N/A     30  27  86 W12       30.15S WCI  21
VALPARAISO     PTCLDY    28  20  71 W17       30.13R WCI  16
6HR MIN TEMP:  28; 6HR MAX TEMP:  31;


$$

LMZ046-743>745-080100-
SOUTHERN LAKE MICHIGAN

STATION/POSITION TIME  TEMP    WIND        PRES    WAVE
                       AIR SEA DIR/SP/G            HT
                 (UTC) (F)     (DEG/KT/KT) (MB)    (FT)
BURNS HARBOR     2340   30     250/ 19/ 24 1020.3R
MICHIGAN CITY    2340   29     220/ 31/ 35   N/A

$$

INZ004-005-014>016-021>024-080100-
NORTH CENTRAL INDIANA

CITY           SKY/WX    TMP DP  RH WIND       PRES   REMARKS
ELKHART        MOCLDY    28  21  74 SW13G23   30.09S WCI  18
GOSHEN         PTCLDY    29  21  72 W13       30.10R WCI  19
6HR MIN TEMP:  29; 6HR MAX TEMP:  34;

LOGANSPORT +   CLOUDY    30  25  80 W10       30.15R WCI  21
PERU/GRISSOM   CLOUDY    31  24  77 W12       30.12S WCI  21
6HR MIN TEMP:  30; 6HR MAX TEMP:  34;

ROCHESTER +    CLOUDY    32  28  86 W10G17    30.13S WCI  24
SOUTH BEND     CLOUDY    27  21  78 SW13      30.10S WCI  16
6HR MIN TEMP:  27; 6HR MAX TEMP:  31;

WARSAW +       CLOUDY    30  21  69 W10       30.11R WCI  21

$$

INZ006>009-017-018-025>027-080100-
NORTHEAST INDIANA

CITY           SKY/WX    TMP DP  RH WIND       PRES   REMARKS
ANGOLA *+      CLEAR     30  19  64 W8        30.06S WCI  23
AUBURN +       CLOUDY    32  23  69 W10G17    30.09S WCI  24
FORT WAYNE     CLOUDY    31  24  75 W13       30.10F WCI  21
6HR MIN TEMP:  31; 6HR MAX TEMP:  35;

HUNTINGTON +   PTCLDY    30  23  74 W13       30.11F WCI  20
6HR MIN TEMP:  30; 6HR MAX TEMP:  35;

KENDALLVILLE + CLOUDY    29  24  79 W10       30.08S WCI  20

$$

INZ028-029-035-036-043>045-051>053-080100-
WEST CENTRAL INDIANA

CITY           SKY/WX    TMP DP  RH WIND       PRES   REMARKS
CRAWFORDSVL +  CLOUDY    29  24  79 W10       30.18R WCI  20
6HR MIN TEMP:  29; 6HR MAX TEMP:  35;

GREENCASTLE +  CLOUDY    32  25  74 W8        30.19R WCI  25
LAFAYETTE      MOCLDY    30  23  75 W12       30.17R WCI  20
6HR MIN TEMP:  29; 6HR MAX TEMP:  34;

TERRE HAUTE    CLOUDY    33  22  63 W6        30.21R WCI  28
6HR MIN TEMP:  33; 6HR MAX TEMP:  37;


$$

INZ030>032-037>040-046>048-054>057-064-065-080100-
CENTRAL INDIANA

CITY           SKY/WX    TMP DP  RH WIND       PRES   REMARKS
CP ATTERBURY + CLOUDY    34  23  64 W5        30.18R WCI  30
COLUMBUS       CLOUDY    34  27  75 SW7       30.18R WCI  28
FRANKFORT +    CLOUDY    33  28  81 W12       30.16S WCI  24
6HR MIN TEMP:  33; 6HR MAX TEMP:  38;

GREENWOOD *+   CLOUDY    34  24  67 W7        30.16R WCI  28
6HR MIN TEMP:  34; 6HR MAX TEMP:  37;

INDIANAPOLIS   CLOUDY    33  23  66 W14       30.17R WCI  23
6HR MIN TEMP:  33; 6HR MAX TEMP:  37;

-EAGLE CREEK   CLOUDY    33  23  66 W13       30.17R WCI  24
6HR MIN TEMP:  33; 6HR MAX TEMP:  39;

KOKOMO +       CLOUDY    31  25  78 W15       30.14S WCI  20
6HR MIN TEMP:  31; 6HR MAX TEMP:  36;

MARION +       CLOUDY    32  25  77 W14       30.14R WCI  22
MT COMFORT *+  CLOUDY    32  25  74 W9        30.15R WCI  24
SHELBYVILLE    CLOUDY    35  24  64 W8        30.15R WCI  29
6HR MIN TEMP:  35; 6HR MAX TEMP:  37;

ZIONSVILLE +   MOCLDY    31  24  75 W10       30.16R WCI  22
6HR MIN TEMP:  31; 6HR MAX TEMP:  35;


$$

INZ033-034-041-042-049-050-058-059-080100-
EAST CENTRAL INDIANA

CITY           SKY/WX    TMP DP  RH WIND       PRES   REMARKS
MUNCIE         CLOUDY    34  24  67 W12       30.13R WCI  25
6HR MIN TEMP:  34; 6HR MAX TEMP:  37;


$$

INZ060-061-067>069-081>083-085>088-080100-
SOUTHWEST INDIANA

CITY           SKY/WX    TMP DP  RH WIND       PRES   REMARKS
EVANSVILLE     CLOUDY    37  23  56 NW6       30.25R
6HR MIN TEMP:  37; 6HR MAX TEMP:  45;

HUNTINGBURG *+ CLOUDY    35  24  64 NW6       30.24R WCI  30
6HR MIN TEMP:  35; 6HR MAX TEMP:  41;

WASHINGTON +   CLOUDY    34  26  72 W3        30.22R
6HR MIN TEMP:  34; 6HR MAX TEMP:  37;


$$

INZ062-063-066-070>080-084-089>092-080100-
SOUTH CENTRAL AND SOUTHEAST INDIANA

CITY           SKY/WX    TMP DP  RH WIND       PRES   REMARKS
BLOOMINGTON    CLOUDY    33  22  63 W6        30.18R WCI  28
6HR MIN TEMP:  33; 6HR MAX TEMP:  36;

MADISON *+     MOCLDY    34  23  64 W3        30.19R
NORTH VERNON + CLOUDY    36  30  80 W6        30.17R
SEYMOUR +      CLOUDY    36  25  64 W7        30.19R

$$





USA.gov is the U.S. government's official web portal to all federal, state and local government web resources and services.